[[{"header":{"parameterUnit":"m.s-1","parameterCategory":1,"la1":30.2991,"la2":30.254,"lo1":-89.0895,"lo2":-89.0444,"dy":0.0017,"dx":0.0017,"nx":28,"ny":28,"refTime":"2025-04-04T09:00:00:Z","depth":0,"parameterNumber":2,"parameterNumberName":"U-component_of_WINDS"},"data":[0,0,0,0,0,0,0,0,0,0,0,0,0,0,0,0,0,0,0,0,0,0,0,0,0,0,0,0,0,0,0,0,0,0,0,0,0,0,0,0,0,0,0,0,0,0,0,0,0,0,0,0,0,0,0,0,0,0,-5.4354,-5.4356,0,-5.4479,-5.448,-5.4482,-5.4475,-5.4473,-5.4472,-5.447,-5.4597,-5.4602,-5.4607,0,0,0,0,0,0,0,0,0,0,0,0,0,-5.4111,-5.4116,-5.4354,-5.4356,-5.4357,-5.4479,-5.448,-5.4482,-5.4476,-5.4473,-5.4471,-5.4469,-5.4596,-5.4602,-5.4608,0,0,0,0,0,0,0,0,0,0,0,0,0,-5.4224,-5.4117,-5.4354,-5.4369,-5.4371,-5.4478,-5.4481,-5.4483,-5.4476,-5.4473,-5.4471,-5.4468,-5.4594,-5.4601,-5.4608,-5.4709,0,0,-5.4632,-5.4635,0,0,0,0,0,0,0,0,-5.4218,-5.4233,-5.4365,-5.4368,-5.4371,-5.4459,-5.4441,-5.4559,-5.4477,-5.4436,-5.447,-5.4467,-5.4553,-5.4564,-5.4593,-5.4715,-5.472,-5.4632,-5.4637,-5.464,-5.4642,0,0,0,0,0,0,0,-5.421,-5.4228,-5.4404,-5.4367,-5.4371,-5.4369,-5.4382,-5.4464,-5.4508,-5.444,-5.4439,-5.4454,-5.4554,-5.4586,-5.4596,-5.4722,-5.4632,-5.4639,-5.4643,-5.4646,-5.4933,-5.4936,0,0,0,0,0,0,-5.4199,-5.4221,-5.44,-5.4407,-5.4286,-5.4376,-5.4391,-5.4433,-5.4507,-5.4516,-5.4456,-5.4453,-5.4574,-5.4587,-5.4601,-5.4722,-5.464,-5.4647,-5.4652,-5.493,-5.4933,-5.4937,0,0,0,0,0,0,-5.4194,-5.4215,-5.4395,-5.4314,-5.4337,-5.4383,-5.4431,-5.4437,-5.4469,-5.452,-5.4528,-5.448,-5.4573,-5.459,-5.4682,-5.4726,-5.4651,-5.4658,-5.4926,-5.4931,-5.4935,-5.4966,0,0,0,0,0,0,-5.4187,-5.4213,-5.4251,-5.4315,-5.4341,-5.4474,-5.4434,-5.4442,-5.4482,-5.4479,-5.4545,-5.4553,-5.4572,-5.4671,-5.469,-5.4736,-5.4663,-5.4922,-5.4928,-5.4933,-5.4962,-5.4972,-5.498,0,0,0,0,0,-5.4178,-5.4255,-5.4253,-5.4275,-5.439,-5.4476,-5.4491,-5.4511,-5.4485,-5.4524,-5.4558,-5.4551,-5.472,-5.468,-5.4701,-5.475,-5.4919,-5.4926,-5.4933,-5.4957,-5.497,-5.498,0,0,0,0,0,0,-5.4195,-5.4264,-5.4262,-5.4363,-5.4414,-5.4475,-5.4524,-5.4524,-5.4583,-5.4578,-5.4601,-5.4616,-5.4708,-5.4739,-5.4694,-5.4852,-5.4816,-5.4827,-5.4827,-5.4839,-5.4848,-5.4838,-5.467,0,0,0,0,0,-5.421,-5.4274,-5.4331,-5.4414,-5.444,-5.4478,-5.4516,-5.4528,-5.4581,-5.4603,-5.4643,-5.4695,-5.476,-5.4802,-5.4864,-5.4967,-5.4981,-5.5012,-5.5021,-5.5028,-5.5037,-5.5093,-5.5107,-5.4959,-5.4959,-5.4959,0,0,-5.4242,-5.4288,-5.4327,-5.4419,-5.446,-5.4525,-5.4496,-5.4567,-5.4615,-5.4614,-5.4702,-5.4734,-5.4794,-5.4892,-5.4937,-5.492,-5.5081,-5.5037,-5.5042,-5.5047,-5.5101,-5.5115,-5.5128,-5.4964,-5.4963,-5.4962,0,0,-5.4334,-5.4376,-5.4449,-5.4491,-5.4553,-5.4578,-5.4596,-5.4658,-5.4679,-5.4769,-5.4769,-5.4828,-5.4939,-5.4982,-5.5018,-5.5128,-5.5124,-5.5148,-5.5195,-5.525,-5.5261,-5.5271,-5.5309,-5.5322,-5.5157,-5.5158,-5.5158,0,-5.4365,-5.4464,-5.4486,-5.4557,-5.4597,-5.46,-5.4674,-5.4714,-5.4794,-5.4822,-5.4803,-5.4942,-5.4983,-5.509,-5.5117,-5.5148,-5.5168,-5.5139,-5.5258,-5.5268,-5.5278,-5.5314,-5.5329,-5.516,-5.516,-5.5159,-5.5159,0,-5.4499,-5.4568,-5.462,-5.4697,-5.4743,-5.4815,-5.4849,-5.4893,-5.4902,-5.4929,-5.5021,-5.507,-5.5143,-5.517,-5.5179,-5.5279,-5.5266,-5.5253,-5.5217,-5.5294,-5.5328,-5.5343,-5.5163,-5.5162,-5.5162,-5.5161,0,0,-5.4601,-5.4691,-5.471,-5.4744,-5.4815,-5.4868,-5.4942,-5.5012,-5.5049,-5.5106,-5.5166,-5.5262,-5.525,-5.5291,-5.5305,-5.5353,-5.5436,-5.5334,-5.5335,-5.5349,-5.5547,-5.5555,-5.5571,-5.5435,-5.5438,-5.544,-5.5542,0,-5.4698,-5.4827,-5.485,-5.4962,-5.5025,-5.503,-5.5094,-5.5144,-5.5172,-5.523,-5.5262,-5.5328,-5.5308,-5.5333,-5.5381,-5.5415,-5.5475,-5.5409,-5.549,-5.5493,-5.5472,-5.5589,-5.5597,-5.5691,-5.5555,-5.5558,-5.5559,0,-5.4827,-5.4886,-5.5005,-5.5067,-5.5094,-5.5151,-5.5218,-5.5274,-5.5331,-5.5349,-5.5396,-5.5405,-5.5481,-5.5445,-5.5549,-5.5503,-5.5539,-5.5561,-5.5566,-5.5571,-5.5528,-5.5595,-5.5721,-5.5734,-5.5581,-5.5579,-5.5578,0,-5.4887,-5.4997,-5.5081,-5.5112,-5.5187,-5.5226,-5.526,-5.5315,-5.5356,-5.5415,-5.5442,-5.551,-5.5546,-5.5599,-5.5626,-5.5597,-5.5729,-5.5695,-5.5744,-5.5743,-5.5768,-5.5766,-5.5899,-5.5797,-5.5796,-5.5796,-5.5796,0,-5.4991,-5.5062,-5.5109,-5.5161,-5.5242,-5.5269,-5.5348,-5.5381,-5.543,-5.5488,-5.5498,-5.5553,-5.5587,-5.5647,-5.5669,-5.5751,-5.5769,-5.5784,-5.5788,-5.5781,-5.5779,-5.5802,-5.5796,-5.58,-5.5799,-5.5798,-5.5798,0,-5.5069,-5.5104,-5.5196,-5.5261,-5.5279,-5.5335,-5.539,-5.5441,-5.547,-5.5544,-5.5563,-5.5609,-5.568,-5.5713,-5.5801,-5.5816,-5.5909,-5.5911,-5.5889,-5.589,-5.5937,-5.5931,-5.6087,-5.6108,-5.5994,-5.5996,-5.5996,0,-5.5132,-5.5187,-5.5257,-5.5297,-5.5331,-5.5396,-5.5438,-5.5468,-5.5512,-5.5582,-5.5624,-5.5696,-5.5754,-5.5867,-5.5908,-5.5976,-5.5978,-5.6028,-5.5988,-5.5979,-5.5975,-5.5971,-5.5976,-5.6034,-5.6035,-5.6036,-5.6037,0,-5.5238,-5.5253,-5.5313,-5.5381,-5.5431,-5.5485,-5.5539,-5.5571,-5.5609,-5.5658,-5.5731,-5.5776,-5.5867,-5.5937,-5.6008,-5.6042,-5.6046,-5.605,-5.6064,-5.6056,-5.604,-5.6047,-5.5906,-5.6045,-5.6044,-5.6043,-5.6043,-5.6043,-5.5309,-5.5358,-5.5415,-5.5482,-5.5526,-5.5576,-5.5626,-5.5663,-5.5724,-5.5799,-5.5814,-5.5891,-5.5948,-5.6043,-5.6081,-5.6141,-5.6129,-5.6151,-5.6156,-5.616,-5.6161,-5.6033,-5.6155,-5.6155,-5.6154,-5.6154,-5.6154,0,-5.5413,-5.5451,-5.5513,-5.5587,-5.564,-5.5641,-5.57,-5.5744,-5.5812,-5.5865,-5.5923,-5.6006,-5.6075,-5.6123,-5.6193,-5.6233,-5.6236,-5.625,-5.6245,-5.6253,-5.6169,-5.6148,-5.6246,-5.6246,-5.6246,-5.6246,-5.6246,-5.6246,-5.5473,-5.5556,-5.5578,-5.5682,-5.572,-5.5795,-5.5829,-5.5875,-5.5918,-5.601,-5.6068,-5.6099,-5.615,-5.6224,-5.6287,-5.63,-5.6324,-5.6338,-5.6349,-5.6269,-5.6259,-5.625,-5.623,-5.6343,-5.6344,-5.6428,-5.6429,-5.6429]},{"header":{"parameterUnit":"m.s-1","parameterCategory":1,"la1":30.2991,"la2":30.254,"lo1":-89.0895,"lo2":-89.0444,"dy":0.0017,"dx":0.0017,"nx":28,"ny":28,"refTime":"2025-04-04T09:00:00:Z","depth":0,"parameterNumber":3,"parameterNumberName":"V-component_of_WINDS"},"data":[0,0,0,0,0,0,0,0,0,0,0,0,0,0,0,0,0,0,0,0,0,0,0,0,0,0,0,0,0,0,0,0,0,0,0,0,0,0,0,0,0,0,0,0,0,0,0,0,0,0,0,0,0,0,0,0,0,0,3.3365,3.3366,0,3.3475,3.3476,3.3478,3.3507,3.3506,3.3505,3.3505,3.3614,3.3618,3.3621,0,0,0,0,0,0,0,0,0,0,0,0,0,3.3179,3.3182,3.3365,3.3366,3.3368,3.3475,3.3476,3.3478,3.3507,3.3506,3.3505,3.3504,3.3613,3.3617,3.3621,0,0,0,0,0,0,0,0,0,0,0,0,0,3.3271,3.3183,3.3365,3.3395,3.3399,3.3475,3.3477,3.3478,3.3507,3.3506,3.3505,3.3504,3.3612,3.3617,3.3622,3.3675,0,0,3.3638,3.3641,0,0,0,0,0,0,0,0,3.3266,3.3278,3.3389,3.3393,3.3397,3.3476,3.3451,3.3544,3.3507,3.3466,3.3505,3.3503,3.3569,3.3578,3.36,3.368,3.3684,3.3639,3.3642,3.3644,3.3646,0,0,0,0,0,0,0,3.3259,3.3273,3.3408,3.3391,3.3396,3.3403,3.3415,3.3469,3.3521,3.3469,3.3472,3.3484,3.3571,3.3595,3.3603,3.3686,3.3639,3.3643,3.3647,3.3649,3.3818,3.3819,0,0,0,0,0,0,3.3248,3.3268,3.3405,3.3412,3.3328,3.3407,3.3421,3.3452,3.3521,3.3531,3.3485,3.3485,3.3587,3.3597,3.3607,3.3676,3.3644,3.3649,3.3652,3.3816,3.3818,3.3819,0,0,0,0,0,0,3.3244,3.326,3.34,3.3341,3.3359,3.3411,3.3446,3.3455,3.3479,3.3533,3.3542,3.35,3.3586,3.36,3.3659,3.368,3.3652,3.3656,3.3815,3.3817,3.3819,3.3812,0,0,0,0,0,0,3.3238,3.3258,3.3279,3.3341,3.3362,3.345,3.3447,3.3457,3.3488,3.349,3.355,3.3559,3.3587,3.3651,3.3664,3.3687,3.3661,3.3813,3.3816,3.3818,3.381,3.3813,3.3816,0,0,0,0,0,3.3232,3.3271,3.328,3.3296,3.3389,3.3451,3.3464,3.3496,3.349,3.3511,3.3547,3.3557,3.3675,3.3656,3.3672,3.3696,3.3812,3.3815,3.3818,3.3809,3.3813,3.3816,0,0,0,0,0,0,3.3208,3.3279,3.329,3.335,3.3395,3.3456,3.3484,3.3498,3.3544,3.3543,3.358,3.3593,3.3651,3.3679,3.3657,3.3753,3.3744,3.375,3.3732,3.3736,3.3738,3.3731,3.3665,0,0,0,0,0,3.321,3.3256,3.3315,3.3363,3.3385,3.3431,3.3459,3.348,3.3527,3.3546,3.3585,3.363,3.3678,3.3708,3.3755,3.3815,3.3829,3.3839,3.3842,3.3844,3.3849,3.3886,3.3892,3.3829,3.3829,3.3829,0,0,3.3214,3.3259,3.3285,3.336,3.3396,3.3443,3.3446,3.3494,3.353,3.3553,3.3612,3.3643,3.3695,3.3756,3.3784,3.3781,3.387,3.3848,3.3849,3.3853,3.3889,3.3895,3.39,3.3831,3.3831,3.383,0,0,3.3246,3.3284,3.333,3.3367,3.3424,3.3455,3.3466,3.3526,3.3548,3.3608,3.3628,3.367,3.375,3.3788,3.3817,3.3867,3.3879,3.3881,3.3895,3.3931,3.3936,3.394,3.396,3.3967,3.3886,3.3886,3.3886,0,3.3244,3.3316,3.3351,3.34,3.3433,3.3458,3.3505,3.3539,3.3608,3.363,3.3626,3.373,3.3767,3.3838,3.3851,3.3873,3.3888,3.3875,3.3932,3.3937,3.3942,3.3962,3.3969,3.3886,3.3886,3.3886,3.3886,0,3.3312,3.3361,3.3391,3.3459,3.3495,3.3543,3.3585,3.3618,3.3636,3.3668,3.373,3.3776,3.3833,3.3852,3.3869,3.3926,3.3923,3.3925,3.3917,3.3948,3.3967,3.3974,3.3886,3.3886,3.3886,3.3886,0,0,3.333,3.342,3.343,3.3463,3.3529,3.3568,3.3617,3.3675,3.3703,3.375,3.3793,3.3863,3.3866,3.39,3.3922,3.3953,3.3993,3.3952,3.3954,3.396,3.4061,3.406,3.4068,3.4001,3.4003,3.4004,3.4058,0,3.3372,3.3463,3.3497,3.3571,3.3618,3.3644,3.3688,3.3733,3.3764,3.3809,3.3842,3.3892,3.3892,3.3913,3.3944,3.3981,3.4014,3.3978,3.4042,3.4044,3.403,3.4078,3.4077,3.4125,3.4065,3.4066,3.4067,0,3.3433,3.3483,3.3562,3.3626,3.3647,3.3685,3.3743,3.3785,3.3837,3.3858,3.3897,3.3919,3.3972,3.3961,3.4036,3.401,3.4039,3.4061,3.4064,3.4072,3.4058,3.4089,3.4141,3.4149,3.4079,3.4078,3.4077,0,3.3441,3.3528,3.3588,3.3615,3.3689,3.3716,3.3748,3.38,3.3834,3.3884,3.3907,3.3962,3.3992,3.4035,3.407,3.4058,3.4143,3.4134,3.4162,3.4162,3.4179,3.4178,3.4238,3.4195,3.4195,3.4195,3.4195,0,3.3485,3.3533,3.3594,3.363,3.3685,3.3725,3.3778,3.3812,3.3858,3.3902,3.3927,3.3968,3.4012,3.4059,3.4087,3.4146,3.4159,3.4178,3.4185,3.4177,3.4175,3.4196,3.4195,3.4197,3.4196,3.4196,3.4196,0,3.3504,3.3546,3.3614,3.368,3.3698,3.3736,3.3792,3.3829,3.3862,3.3918,3.3933,3.3985,3.4042,3.4082,3.4153,3.4173,3.4237,3.4243,3.422,3.4224,3.4251,3.4249,3.4329,3.4342,3.4288,3.4289,3.4289,0,3.353,3.3568,3.3639,3.3672,3.3704,3.3755,3.3791,3.3832,3.3868,3.3932,3.3962,3.4021,3.407,3.4159,3.4203,3.4259,3.4267,3.4292,3.4276,3.4267,3.427,3.4268,3.4273,3.4294,3.4295,3.4295,3.4295,0,3.3572,3.3592,3.3643,3.3702,3.3745,3.3793,3.3841,3.3866,3.3915,3.3954,3.4014,3.4052,3.4128,3.4186,3.4247,3.428,3.4297,3.43,3.431,3.4302,3.4288,3.4299,3.4228,3.4298,3.4298,3.4297,3.4297,3.4297,3.3597,3.3633,3.369,3.3747,3.3788,3.3833,3.3873,3.3912,3.3962,3.4028,3.4049,3.4111,3.4165,3.4249,3.4283,3.4332,3.4331,3.4344,3.4348,3.4351,3.4353,3.428,3.4343,3.4343,3.4343,3.4343,3.4343,0,3.3642,3.3681,3.3733,3.3801,3.3846,3.3859,3.3914,3.3951,3.4006,3.4056,3.4105,3.4174,3.4232,3.4281,3.4341,3.4371,3.4381,3.4386,3.4385,3.4393,3.4349,3.4336,3.4378,3.4378,3.4378,3.4378,3.4378,3.4378,3.3671,3.3734,3.3761,3.3846,3.3884,3.3946,3.3977,3.402,3.406,3.4137,3.4186,3.4218,3.4269,3.4333,3.4387,3.44,3.4422,3.4426,3.444,3.4399,3.4395,3.4391,3.4379,3.4429,3.4429,3.448,3.4481,3.4481]}]]